TIME,DELAY(SENSOR),PRES,OXYGEN,RAWTEMP,T(OPTODE),TCPHASE,FLUOR,BETA(BETA700),BETA(BETA412),BETA(BETA440),CDOM,C(CSC),ED(ED412.40),ED(ED444.00),ED(ED489.70),ED(ED554.30),LU(LU411.80),LU(LU443.40),LU(LU489.60),LU(LU554.10),COMP,TILTX,TILTY,CHECK
1350013011,5806,824.6900024414062000,42.5186691284179700,659.0255737304688000,4.6600461006164550,54.6133804321289060,53,101,96,79,82,15195,2147752274,2147423341,2148010706,2147874642,2147640448,2147068013,2148256914,2147197348,1475,5,13,52031
1350016607,5808,903.0700073242188000,45.6131591796875000,666.6267700195312000,4.4095611572265625,54.2481307983398440,53,98,88,78,82,15198,2147756059,2147421101,2148010422,2147874084,2147640493,2147066304,2148263277,2147198098,424,4,13,28336
1350020207,5810,915.4299926757812000,46.1185188293457000,667.7951049804688000,4.3710060119628910,54.1904182434082000,53,97,89,78,81,15201,2147755776,2147421193,2148010870,2147875611,2147642166,2147065764,2148263762,2147198464,682,5,13,46628
1350023807,5804,937.0000000000000000,46.4991493225097660,669.7498168945312000,4.3064608573913570,54.1573905944824200,52,100,85,79,80,15195,2147757312,2147421083,2148009691,2147875675,2147644781,2147062262,2148263113,2147199305,3494,5,13,62218
1350027407,5811,948.3300170898438000,46.5395011901855500,669.2927856445312000,4.3215541839599610,54.1490211486816400,52,101,87,80,81,15201,2147757869,2147422921,2148008914,2147873252,2147641307,2147063396,2148260461,2147199414,206,5,13,64335
1350031007,5810,953.1900024414062000,46.3992195129394500,669.1575927734375000,4.3260211944580080,54.1626205444335940,53,98,88,79,81,15198,2147758345,2147423222,2148009856,2147875181,2147644644,2147064274,2148260004,2147198006,571,5,13,64942
1350034607,5810,974.3599853515625000,47.4721717834472660,672.4257202148438000,4.2180352210998535,54.0536689758300800,53,99,85,80,81,15202,2147757686,2147425691,2148009810,2147873380,2147643958,2147063689,2148266450,2147200237,385,5,13,54689
1350038207,5810,988.7100219726562000,48.2432594299316400,673.0712280273438000,4.1966919898986820,53.9553184509277340,53,98,86,79,81,15196,2147758299,2147419501,2148011565,2147872923,2147642514,2147064941,2148261156,2147200100,3312,4,13,64743
1350041807,5806,976.3300170898438000,47.9668693542480500,672.7810058593750000,4.2062869071960450,53.9912986755371100,51,100,88,79,82,15197,2147759241,2147421065,2148010166,2147874395,2147643401,2147060699,2148260736,2147200950,904,5,13,17222
1350045407,5810,978.5399780273438000,47.8423805236816400,673.0209960937500000,4.1983509063720700,54.0070304870605500,53,98,84,78,81,15195,2147757595,2147421622,2148011885,2147874697,2147644580,2147062592,2148265325,2147198262,3556,4,13,27426
1350049007,5806,979.9500122070312000,47.3038406372070300,672.9260864257812000,4.2014870643615720,54.0807991027832000,52,98,88,79,82,15192,2147754166,2147422930,2148010797,2147874660,2147646125,2147064045,2148260233,2147198253,103,5,13,31310
1350052607,5812,986.6699829101562000,48.1268005371093750,673.2423706054688000,4.1910290718078610,53.9702491760253900,52,98,88,81,80,15192,2147759899,2147424987,2148010459,2147872758,2147643904,2147062125,2148261412,2147198866,3467,5,13,40
1350056207,5807,983.7000122070312000,47.3972892761230500,672.8256835937500000,4.2048091888427730,54.0663299560546900,53,96,89,80,80,15189,2147760603,2147422427,2148012242,2147875629,2147647213,2147064384,2148264064,2147201984,393,4,13,64886
1350059807,5811,979.3900146484375000,47.7863006591796900,673.8815917968750000,4.1698880195617680,54.0262298583984400,53,99,90,79,80,15192,2147757174,2147422646,2148010560,2147873197,2147646866,2147059666,2148266340,2147197376,3432,5,13,7362
1350063407,5807,988.9799804687500000,47.6505699157714840,672.9365844726562000,4.2011408805847170,54.0322685241699200,52,96,90,80,82,15192,2147757266,2147420507,2148010404,2147875538,2147642697,2147063076,2148262893,2147200649,317,5,13,49078
1350067007,5807,984.6500244140625000,47.6005401611328100,673.0410156250000000,4.1976909637451170,54.0439987182617200,53,100,84,81,80,15190,2147755858,2147420397,2148010477,2147873252,2147645961,2147061604,2148262226,2147198089,2448,5,13,62
1350070607,5809,982.3400268554688000,47.7244415283203100,673.4708862304688000,4.1834697723388670,54.0293998718261700,53,101,87,81,82,15190,2147758372,2147420873,2148011190,2147873846,2147645741,2147062162,2148258971,2147199990,229,5,13,27700
1350074207,5808,986.1599731445312000,47.5053100585937500,673.3289794921875000,4.1881661415100100,54.0572204589843750,53,98,88,79,80,15186,2147759021,2147420772,2148008018,2147872841,2147644233,2147058413,2148263250,2147200128,3550,4,13,16171
1350077807,5810,988.8200073242188000,47.3180198669433600,673.2163696289062000,4.1918911933898930,54.0811195373535160,52,102,85,78,81,15189,2147758610,2147422729,2148009929,2147876754,2147644553,2147068333,2148262848,2147201462,187,5,13,65247
1350081407,5811,981.9000244140625000,47.5828208923339840,674.0333862304688000,4.1648669242858890,54.0558815002441400,52,99,88,80,81,15188,2147759872,2147423003,2148011099,2147872329,2147644608,2147061513,2148259337,2147197997,923,5,13,64022
1350085007,5808,988.3499755859375000,47.8852882385253900,673.8605957031250000,4.1705818176269530,54.0100402832031250,53,98,88,78,81,15110,2147759533,2147422134,2148012918,2147875958,2147645220,2147065828,2148262198,2147197138,3516,5,13,55141
1350088607,5808,988.7899780273438000,47.4669609069824200,674.1674804687500000,4.1604290008544920,54.0782585144043000,53,100,86,79,80,15133,2147759707,2147422948,2148009554,2147873042,2147643894,2147067858,2148259373,2147200658,167,5,13,30127
1350092207,5807,992.6799926757812000,47.8391609191894500,674.0219116210938000,4.1652488708496090,54.0220718383789060,52,99,89,78,82,15129,2147761453,2147419977,2148010194,2147874020,2147642194,2147064566,2148263442,2147198811,3502,4,13,28359
1350095807,5810,991.7899780273438000,47.7641716003418000,673.7255249023438000,4.1750531196594240,54.0256805419921900,52,99,90,79,80,15130,2147757147,2147423268,2148009408,2147873846,2147647296,2147067264,2148262418,2147197961,162,5,13,22317
1350099407,5810,994.7500000000000000,47.8232994079589840,673.4052124023438000,4.1856441497802730,54.0142898559570300,53,99,85,78,81,15127,2147754907,2147421376,2148010560,2147876864,2147644754,2147065206,2148261504,2147197046,58,5,13,54538
1350103007,5808,988.3099975585938000,47.5014801025390600,673.8792724609375000,4.1699638366699220,54.0683517456054700,53,98,84,77,82,15123,2147758701,2147418962,2148009709,2147875547,2147645814,2147060644,2148262400,2147202002,3559,4,13,9833
1350106607,5810,988.3099975585938000,47.8818511962890600,674.4140014648438000,4.1522769927978520,54.0218200683593750,53,98,90,78,81,15123,2147761526,2147421897,2148009801,2147875291,2147644480,2147062784,2148259913,2147198884,3503,5,13,19613
1350110207,5807,990.8800048828125000,47.8129386901855500,673.6915893554688000,4.1761741638183590,54.0249290466308600,52,101,86,80,82,15123,2147756580,2147423113,2148008758,2147875529,2147643785,2147066368,2148259273,2147200118,303,4,13,25013
1350113807,5807,1000.2500000000000000,47.4478988647460940,672.2819213867188000,4.2227878570556640,54.0559692382812500,53,99,89,80,81,15119,2147760566,2147420169,2148008402,2147875949,2147643885,2147063890,2148255478,2147199625,98,5,13,28194
1350117407,5810,988.7100219726562000,47.0945892333984400,672.4874877929688000,4.2159881591796875,54.1094398498535160,54,99,87,79,81,15121,2147759972,2147420525,2148008082,2147874386,2147643968,2147063250,2148261257,2147200182,1248,5,13,36427
1350121007,5811,996.3499755859375000,47.4519309997558600,672.3198242187500000,4.2215371131896970,54.0525093078613300,53,102,85,79,81,15085,2147761618,2147422171,2148008073,2147876105,2147646765,2147060306,2148258358,2147198400,429,5,13,35713
1350124607,5809,992.2700195312500000,47.1475181579589840,673.4271850585938000,4.1849169731140140,54.1149482727050800,52,99,87,78,81,15093,2147761033,2147419675,2148008941,2147877074,2147645385,2147059757,2148267410,2147196662,26,5,13,52134
1350128207,5810,987.1599731445312000,46.9668998718261700,674.0092773437500000,4.1656651496887210,54.1412086486816400,53,100,92,78,82,15094,2147760091,2147418413,2148009737,2147873344,2147643611,2147061193,2148260361,2147197613,399,5,13,1042
1350131807,5810,993.1900024414062000,47.0991706848144500,674.3267822265625000,4.1551589965820310,54.1318092346191400,53,98,86,81,81,15091,2147756736,2147419894,2148012544,2147876141,2147642011,2147061549,2148260352,2147197266,115,4,13,41255
1350135407,5808,989.6799926757812000,47.2944183349609400,674.8541870117188000,4.1377091407775880,54.1074485778808600,53,101,87,79,82,15093,2147759698,2147422317,2148007460,2147873462,2147644297,2147060096,2148262921,2147197650,193,5,13,28957
1350139007,5812,989.2000122070312000,48.0206413269043000,675.1301269531250000,4.1285820007324220,54.0125007629394500,52,98,88,80,82,15089,2147760685,2147419227,2148011766,2147873627,2147645869,2147062445,2148264694,2147197211,63,5,13,735
1350142607,5807,992.5100097656250000,48.2024993896484400,674.7852172851562000,4.1399941444396970,53.9774093627929700,52,99,85,79,82,15090,2147757394,2147421696,2148007506,2147874761,2147645321,2147059995,2148265206,2147196068,3539,5,13,49203
1350146207,5811,992.4699707031250000,47.5164909362793000,674.2576293945312000,4.1574478149414060,54.0715217590332000,53,98,91,78,82,15089,2147755803,2147418532,2148009883,2147873453,2147643574,2147063250,2148267419,2147200164,25,5,13,34942
1350149807,5807,991.9899902343750000,47.8478393554687500,675.3275146484375000,4.1220469474792480,54.0341110229492200,52,99,87,80,81,15088,2147756352,2147421385,2148009755,2147873197,2147645577,2147062582,2148262052,2147198354,476,5,13,46768
1350153407,5810,998.5000000000000000,47.1349487304687500,673.1052856445312000,4.1955618858337400,54.1080589294433600,52,98,91,77,82,15084,2147756105,2147421357,2148007680,2147875154,2147643446,2147064219,2148264146,2147198784,376,5,13,63574
1350157007,5810,996.0300292968750000,46.8898811340332000,673.6560058593750000,4.1773509979248050,54.1480293273925800,53,99,87,79,82,15082,2147759661,2147424118,2148007945,2147874578,2147644763,2147060772,2148262528,2147193581,3586,5,13,986
1350157254,5807,996.5999755859375000,46.9151000976562500,673.6364746093750000,4.1779937744140625,54.1433601379394500,52,104,87,80,82,15183,2147758921,2147424365,2148009618,2147873536,2147645686,2147062710,2148263378,2147195958,3562,4,13,13664
